Regional Weather Roundup
Issued by NWS Charleston, SC

Current Version | Previous Version | Graphics & Text | Print | Product List | Glossary On
Versions: 1 2 3 4 5 6 7 8 9 10 11 12 13 14 15 16 17 18 19 20 21 22 23 24 25 26 27 28 29 30 31 32 33 34 35 36 37 38 39 40 41 42 43 44 45 46 47 48 49 50
000 ASUS42 KCHS 241125 RWRCHS REGIONAL WEATHER ROUNDUP NATIONAL WEATHER SERVICE CHARLESTON SC 700 AM EDT FRI OCT 24 2014 NOTE: "FAIR" INDICATES FEW OR NO CLOUDS BELOW 12,000 FEET WITH NO SIGNIFICANT WEATHER AND/OR OBSTRUCTIONS TO VISIBILITY. NOT ALL STATIONS ARE QUALITY CONTROLLED BY THE NATIONAL WEATHER SERVICE. USE DATA WITH CAUTION...ESPECIALLY DEWPOINT OBSERVATIONS. SCZ027-030-031-034>040-042>050-241200- ...SOUTH CAROLINA... CITY SKY/WX TMP DP RH WIND PRES REMARKS N CHARLESTON MOCLDY 52 45 77 NE7 30.03R WATERFRONT PRK N/A 57 N/A N/A S9G16 N/A FORT JOHNSON NOT AVBL JOHNS ISLAND SUNNY 54 48 82 CALM 30.04R PINOPOLIS NOT AVBL MONCKS CORNER FAIR 52 48 87 CALM 30.03S SUMMERVILLE FAIR 43 43 100 CALM 30.05R BEAUFORT MCAS PTCLDY 48 45 89 CALM 30.04R BEAUFORT ARPT FAIR 50 50 100 CALM 30.04R HILTON HEAD IS CLEAR 50 48 93 W3 30.05R GEORGETOWN NOT AVBL WALTERBORO PTSUNNY 45 N/A N/A CALM 30.05R ORANGEBURG MOCLDY 47 44 90 CALM 30.05R BARNWELL FAIR 45 43 93 CALM 30.05S AIKEN FAIR 46 45 93 CALM 30.09R MANNING FAIR 46 N/A N/A CALM 30.04R KINGSTREE NOT AVBL COLUMBIA MOCLDY 45 42 89 CALM 30.04S SUMTER MOCLDY 49 43 81 NE3 30.02R FLORENCE MOCLDY 48 42 80 CALM 30.03R MYRTLE BEACH CLEAR 52 43 71 N9 30.02S N MYRTLE BEACH MOCLDY 49 44 83 N6 30.02R $$ GAZ063-065-086>088-099>101-113>116-118-119-134-136>141-150-241200- ...GEORGIA... CITY SKY/WX TMP DP RH WIND PRES REMARKS SAVANNAH ARPT MOCLDY 50 45 83 CALM 30.05R HUNTER AAF PTCLDY 47 45 93 W2 30.03R FORT STEWART PTCLDY 45 43 93 CALM 30.03R STATESBORO NOT AVBL SYLVANIA CLOUDY 49 48 97 E5 30.06R CLAXTON FAIR 45 45 100 CALM 30.05S THOMSON CLOUDY 46 46 100 CALM 30.11R AUGUSTA-BUSH CLOUDY 45 43 93 CALM 30.06R AUGUSTA-DANIEL CLOUDY 52 45 77 NW3 30.06R SWAINSBORO FAIR 45 45 100 MISG 30.06R FOG VIDALIA PTCLDY 48 46 93 CALM 30.05R ALMA MOCLDY 47 46 97 CALM 30.03S FOG WAYCROSS MOCLDY 50 49 98 CALM 30.04S JESUP FAIR 46 45 93 CALM 30.04S BRUNSWICK PTCLDY 48 46 93 CALM 30.04S SAINT SIMONS PTCLDY 51 50 96 NW3 30.03R $$ SCZ027-028-034-036>038-045-046-048>050-GAZ119-141-241200- ...LAKE AND SUPPLEMENTAL COASTAL OBSERVATIONS... STATION/POSITION TIME TEMP WIND PRES WAVE SWELL AIR SEA DIR/SP/G HT/PER HT/PER/DIR (UTC) (F) (DEG/KT/KT) (MB) (FT/S) (FT/S/D) UPR LAKE MARION NOT AVBL WINYAH BAY 1100 50 340/ 6 1016.0S LAKE MURRAY 1100 51 CALM / 2 1016.9S ACE BASIN NERRS 1100 48 CALM 1016.0S FORT PULASKI 1100 56 320/ 8/ 9 1017.5R SAPELO ISLAND NOT AVBL $$ ANZ835-935-AMZ111-154-330-350-352-354-374-450-454-472-241200- ...C-MAN AND BUOY OBSERVATIONS... STATION/POSITION TIME TEMP WIND PRES WAVE SWELL AIR SEA DIR/SP/G HT/PER HT/PER/DIR (UTC) (F) (DEG/KT/KT) (MB) (FT/S) (FT/S/D) FOLLY BEACH CMAN 1100 57 10/ 9/ 10 1017.2R BUOY 41004 1100 67 78 350/ 10/ 12 1015.7R 3/11 3/11 BUOY 41008 1100 69 75 40/ 6/ 8 1016.8R 2/ 9 2/ 90/ 9 5E ST. MARYS GA 1100 76 N/A 2/ 8 FRYING PAN BUOY 1100 65 74 10/ 10/ 12 1016.3R 3/11 2/ 50/11 BUOY 41025 1100 61 320/ 19/ 21 1014.1R 4/ 5 2/ 40/ 8 CAPE LOOKOUT NC 1100 57 350/ 11/ 12 1015.2R BUOY 41002 1013 72 77 310/ 10/ 12 1014.7R 5/10 5/ 10/10 BUOY 41010 1100 73 81 30/ 12/ 14 1014.7R 3/ 9 2/ 60/ 9 BUOY 41012 NOT AVBL ST AUGUSTINE FL 1100 59 320/ 6/ 7 1016.4R CAPERS NEARSHORE NOT AVBL FRIPP NEARSHORE NOT AVBL $$

USA.gov is the U.S. government's official web portal to all federal, state and local government web resources and services.